XBGAR MMTO-MMMX

Flight info

Callsign XBGAR
Flight time N/A
Altitude 12500
Route MMTO MMMX
Aircraft R182/L-SD/L

Departure

Time 2026-05-04 23:40
Airport Adolfo López Mateos International Airport (MMTO)

Arrival

Time N/A
Airport Mexico City Benito Juárez International Airport (MMMX)
Time Latitude Longitude Altitude Speed Heading
2026-05-04 23:29 19.34289 -99.57239 8467 ft 0 kts 156°
2026-05-04 23:32 19.34257 -99.57217 8467 ft 15 kts 124°
2026-05-04 23:33 19.34273 -99.57123 8465 ft 13 kts 60°
2026-05-04 23:33 19.34336 -99.57086 8467 ft 11 kts 341°
2026-05-04 23:33 19.34417 -99.57122 8466 ft 16 kts 336°
2026-05-04 23:33 19.34531 -99.57172 8466 ft 19 kts 336°
2026-05-04 23:34 19.34667 -99.57237 8466 ft 24 kts 342°
2026-05-04 23:34 19.34845 -99.57316 8466 ft 31 kts 336°
2026-05-04 23:34 19.35051 -99.57409 8463 ft 33 kts 336°
2026-05-04 23:34 19.35214 -99.57481 8466 ft 17 kts 335°
2026-05-04 23:35 19.35333 -99.57534 8462 ft 19 kts 348°
2026-05-04 23:35 19.35398 -99.57475 8467 ft 0 kts 64°
2026-05-04 23:37 19.35400 -99.57470 8467 ft 6 kts 67°
2026-05-04 23:37 19.35417 -99.57383 8464 ft 15 kts 131°
2026-05-04 23:37 19.35386 -99.57360 8468 ft 0 kts 157°
2026-05-04 23:38 19.35371 -99.57353 8467 ft 13 kts 156°
2026-05-04 23:38 19.35172 -99.57264 8467 ft 48 kts 156°
2026-05-04 23:38 19.34770 -99.57084 8467 ft 75 kts 157°
2026-05-04 23:39 19.34232 -99.56842 8489 ft 91 kts 156°
2026-05-04 23:39 19.33622 -99.56561 8557 ft 101 kts 158°
2026-05-04 23:39 19.32948 -99.56273 8642 ft 106 kts 156°
2026-05-04 23:39 19.32273 -99.55964 8847 ft 105 kts 158°
2026-05-04 23:40 19.31548 -99.55746 8964 ft 109 kts 161°
2026-05-04 23:40 19.31147 -99.55102 8904 ft 129 kts 87°
2026-05-04 23:40 19.31615 -99.54266 9015 ft 133 kts 61°
2026-05-04 23:40 19.32127 -99.53443 9112 ft 133 kts 62°
2026-05-04 23:41 19.32656 -99.52637 9238 ft 136 kts 59°
2026-05-04 23:41 19.33225 -99.51817 9311 ft 139 kts 57°
2026-05-04 23:41 19.33824 -99.51013 9406 ft 141 kts 55°
2026-05-04 23:41 19.34413 -99.50150 9397 ft 147 kts 62°
2026-05-04 23:42 19.34856 -99.49169 9415 ft 149 kts 73°
2026-05-04 23:42 19.35135 -99.48149 9574 ft 138 kts 79°
2026-05-04 23:42 19.35505 -99.47231 9702 ft 136 kts 63°
2026-05-04 23:42 19.35969 -99.46334 9728 ft 147 kts 60°
2026-05-04 23:43 19.36467 -99.45359 9785 ft 153 kts 60°
2026-05-04 23:43 19.36957 -99.44359 9912 ft 152 kts 64°
2026-05-04 23:43 19.37450 -99.43353 9991 ft 150 kts 59°
2026-05-04 23:43 19.37915 -99.42439 10299 ft 133 kts 61°
2026-05-04 23:44 19.38115 -99.41544 10471 ft 127 kts 96°
2026-05-04 23:44 19.38071 -99.40604 10620 ft 129 kts 92°
2026-05-04 23:44 19.38096 -99.39647 10776 ft 129 kts 87°
2026-05-04 23:44 19.38153 -99.38643 10738 ft 146 kts 86°
2026-05-04 23:45 19.38267 -99.37563 10775 ft 149 kts 80°
2026-05-04 23:45 19.38444 -99.36461 10777 ft 154 kts 78°
2026-05-04 23:45 19.38637 -99.35344 10737 ft 157 kts 77°
2026-05-04 23:45 19.38899 -99.34220 10660 ft 158 kts 73°
2026-05-04 23:46 19.39222 -99.33132 10734 ft 150 kts 69°
2026-05-04 23:46 19.39563 -99.32086 10690 ft 155 kts 70°
2026-05-04 23:46 19.39883 -99.31024 10873 ft 147 kts 72°
2026-05-04 23:46 19.40150 -99.30002 11053 ft 141 kts 73°
2026-05-04 23:47 19.40417 -99.28984 11113 ft 145 kts 72°
2026-05-04 23:47 19.40704 -99.27940 11106 ft 152 kts 72°
2026-05-04 23:47 19.40903 -99.26787 10971 ft 163 kts 80°
2026-05-04 23:47 19.41073 -99.25629 11063 ft 156 kts 79°
2026-05-04 23:48 19.41283 -99.24504 11115 ft 155 kts 77°
2026-05-04 23:48 19.41480 -99.23383 11142 ft 156 kts 77°
2026-05-04 23:48 19.41677 -99.22235 11143 ft 159 kts 78°
2026-05-04 23:48 19.41858 -99.21115 11209 ft 155 kts 79°
2026-05-04 23:49 19.42030 -99.19979 11211 ft 157 kts 78°
2026-05-04 23:49 19.42256 -99.18857 11269 ft 154 kts 73°
2026-05-04 23:49 19.42584 -99.17784 11327 ft 152 kts 69°
2026-05-04 23:49 19.42903 -99.16714 11374 ft 154 kts 72°
2026-05-04 23:50 19.43138 -99.15644 11235 ft 146 kts 77°
2026-05-04 23:50 19.43293 -99.14608 11155 ft 138 kts 80°
2026-05-04 23:50 19.43485 -99.13615 11022 ft 137 kts 74°
2026-05-04 23:50 19.43733 -99.12657 10913 ft 135 kts 71°
2026-05-04 23:51 19.44016 -99.11706 10752 ft 136 kts 71°
2026-05-04 23:51 19.44307 -99.10753 10618 ft 135 kts 70°
2026-05-04 23:51 19.44606 -99.09811 10462 ft 136 kts 70°
2026-05-04 23:51 19.44907 -99.08860 10319 ft 135 kts 71°
2026-05-04 23:52 19.45195 -99.07916 10198 ft 134 kts 71°
2026-05-04 23:52 19.45485 -99.06975 10048 ft 134 kts 71°
2026-05-04 23:52 19.45778 -99.06041 9909 ft 133 kts 71°
2026-05-04 23:52 19.46067 -99.05111 9750 ft 133 kts 71°
2026-05-04 23:53 19.46362 -99.04187 9598 ft 132 kts 71°
2026-05-04 23:53 19.46661 -99.03290 9498 ft 129 kts 70°
2026-05-04 23:53 19.46956 -99.02399 9406 ft 128 kts 72°
2026-05-04 23:53 19.47217 -99.01487 9322 ft 129 kts 74°
2026-05-04 23:54 19.47560 -99.00630 9262 ft 128 kts 60°
2026-05-04 23:54 19.48236 -98.99964 9224 ft 142 kts 35°
2026-05-04 23:54 19.49176 -98.99784 9343 ft 135 kts 349°
2026-05-04 23:54 19.49978 -99.00225 9559 ft 123 kts 321°
2026-05-04 23:55 19.50744 -99.00943 9186 ft 164 kts 319°
2026-05-04 23:55 19.51671 -99.01564 9262 ft 152 kts 335°
2026-05-04 23:55 19.53818 -99.02014 9147 ft 158 kts 357°
2026-05-04 23:56 19.54880 -99.02068 9222 ft 148 kts 357°
2026-05-04 23:56 19.55908 -99.02132 9228 ft 148 kts 356°
2026-05-04 23:56 19.56934 -99.02214 9198 ft 151 kts 357°
2026-05-04 23:56 19.57977 -99.02216 9210 ft 148 kts
2026-05-04 23:57 19.58988 -99.01974 9133 ft 152 kts 16°
2026-05-04 23:57 19.60012 -99.01738 9198 ft 148 kts
2026-05-04 23:57 19.61031 -99.01606 9270 ft 147 kts
2026-05-04 23:57 19.62060 -99.01508 9315 ft 147 kts
2026-05-04 23:58 19.63067 -99.01446 9399 ft 144 kts
2026-05-04 23:58 19.64081 -99.01349 9358 ft 148 kts
2026-05-04 23:58 19.65101 -99.01385 9360 ft 146 kts 355°
2026-05-04 23:58 19.66095 -99.01480 9279 ft 142 kts 349°
2026-05-04 23:59 19.66916 -99.01902 9320 ft 128 kts 324°
2026-05-04 23:59 19.67635 -99.02502 9135 ft 135 kts 323°
2026-05-04 23:59 19.68329 -99.03147 8935 ft 128 kts 322°
2026-05-04 23:59 19.68977 -99.03735 8805 ft 120 kts 323°
2026-05-05 00:00 19.69652 -99.04258 8644 ft 119 kts 326°
2026-05-05 00:00 19.69873 -99.04417 8582 ft 116 kts 327°
2026-05-05 00:00 19.70938 -99.05102 8184 ft 101 kts 329°
2026-05-05 00:00 19.71598 -99.05179 8029 ft 97 kts 15°
2026-05-05 00:01 19.72228 -99.04924 7801 ft 97 kts 20°
2026-05-05 00:01 19.72823 -99.04593 7601 ft 97 kts 35°
2026-05-05 00:01 19.73157 -99.04279 7459 ft 96 kts 56°
2026-05-05 00:01 19.73660 -99.03666 7368 ft 70 kts 51°
2026-05-05 00:02 19.73940 -99.03319 7361 ft 52 kts 49°
2026-05-05 00:02 19.74025 -99.03216 7361 ft 0 kts 50°
2026-05-05 00:02 19.74028 -99.03212 7361 ft 4 kts 49°
2026-05-05 00:03 19.74102 -99.03121 7361 ft 34 kts 49°
2026-05-05 00:03 19.74236 -99.02953 7361 ft 57 kts 49°
2026-05-05 00:03 19.74574 -99.02561 7381 ft 83 kts 44°
2026-05-05 00:03 19.75041 -99.02180 7493 ft 85 kts 67°
2026-05-05 00:04 19.75326 -99.01531 7502 ft 109 kts 64°
2026-05-05 00:04 19.75704 -99.00822 7691 ft 111 kts 59°
2026-05-05 00:04 19.76117 -99.00133 7853 ft 114 kts 54°
2026-05-05 00:04 19.76632 -98.99435 7916 ft 125 kts 49°
2026-05-05 00:05 19.77232 -98.98739 8038 ft 130 kts 46°
2026-05-05 00:05 19.78016 -98.98335 8057 ft 131 kts
2026-05-05 00:05 19.78575 -98.99173 8043 ft 128 kts 237°
2026-05-05 00:05 19.78069 -98.99457 8113 ft 126 kts 202°
2026-05-05 00:06 19.77272 -98.99837 7768 ft 120 kts 210°
2026-05-05 00:06 19.76655 -99.00335 7448 ft 102 kts 228°
2026-05-05 00:06 19.76221 -99.00821 7370 ft 77 kts 234°
2026-05-05 00:06 19.75928 -99.01189 7361 ft 55 kts 231°
2026-05-05 00:07 19.75701 -99.01463 7359 ft 44 kts 229°
2026-05-05 00:07 19.75518 -99.01684 7359 ft 36 kts 229°
2026-05-05 00:07 19.75369 -99.01863 7360 ft 29 kts 221°
2026-05-05 00:07 19.75256 -99.02002 7362 ft 10 kts 228°
2026-05-05 00:08 19.75254 -99.02005 7362 ft 0 kts 230°